Weather Roundup
Issued by NWS

Home | Current Version | Previous Version | Graphics & Text | Print | Product List | Glossary Off
Versions: 1 2 3 4 5 6 7 8 9 10 11 12 13 14 15 16 17 18 19 20 21 22 23 24 25 26 27 28 29 30 31 32 33 34 35 36 37 38 39 40 41 42 43 44 45 46 47 48 49 50

129
NZUS93 KARX 031459
HRRWXR

CURRENT HOURLY OBSERVATIONS ACROSS
MUCH OF THE UPPER MISSISSIPPI VALLEY
NATIONAL WEATHER SERVICE LA CROSSE WI
1000 AM CDT TUE MAY 03 2016


...SOUTHEAST MINNESOTA...


CITY           SKY/WX    TMP DP  RH WIND       PRES   REMARKS
ROCHESTER      SUNNY     61  44  53 W15       29.95F
ROCHESTER/MAYO FAIR      60  41  49 W12G20    29.93F
WINONA         SUNNY     61  41  48 NW6       29.92F
AUSTIN         SUNNY     61  43  51 W12G17    29.95F
ALBERT LEA     SUNNY     61  43  51 W8        29.96F
DODGE CENTER   MOSUNNY   61  43  51 W15       29.94F
PRESTON        SUNNY     60  42  50 W14G20    29.95F
OWATONNA       SUNNY     61  41  48 W13       29.94F
FARIBAULT      SUNNY     61  43  51 W10       29.94F
$$

...ELSEWHERE IN MINNESOTA...


CITY           SKY/WX    TMP DP  RH WIND       PRES   REMARKS
MINNEAPOLIS    PTSUNNY   59  41  51 W12       29.91F
INTNL FALLS    PTSUNNY   59  39  47 NW10      29.71F
DULUTH         CLOUDY    59  33  37 W15       29.76F
RED WING       SUNNY     63  37  39 W6        29.90F
REDWOOD FALLS  MOSUNNY   62  40  44 W13       29.95F
MANKATO        SUNNY     61  43  51 W12       29.95F
WORTHINGTON    SUNNY     57  42  57 W15       30.00F
FAIRMONT       SUNNY     61  39  44 W13       29.97F
$$

...SOUTHWEST WISCONSIN...


CITY           SKY/WX    TMP DP  RH WIND       PRES   REMARKS
LA CROSSE      SUNNY     63  42  46 S7        29.92F
PRAIRIE DU CHI SUNNY     60  41  50 W7        29.97F
BOSCOBEL       SUNNY     63  43  48 VRB5      29.96F
LONE ROCK      NOT AVBL
PLATTEVILLE    SUNNY     58  46  64 W9        29.97F
FORT MC COY    SUNNY     59  42  52 W7        29.92F
MAUSTON-NEW LI NOT AVBL
VIROQUA        FAIR      59  40  48 W15       29.94F
WIS DELLS      SUNNY     59  38  45 W13       29.92F
$$

...ELSEWHERE IN WISCONSIN...


CITY           SKY/WX    TMP DP  RH WIND       PRES   REMARKS
MILWAUKEE      MOSUNNY   62  38  40 NW8       29.92F
MADISON        MOSUNNY   61  40  45 NW10      29.93F
GREEN BAY      SUNNY     63  40  42 W12       29.85F
EAU CLAIRE     NOT AVBL
BLACK RVR FLS  FAIR      62  37  39 SW6       29.91F
MEDFORD        MOSUNNY   57  40  51 W10       29.86F
WAUSAU         SUNNY     64  36  35 W16G23    29.84F
WIS RAPIDS     SUNNY     63  36  36 NW12      29.90F
MARSHFIELD     SUNNY     62  40  44 W13       29.87F
RICE LAKE      PTSUNNY   60  38  44 W10       29.88S
$$

...NORTHEAST IOWA...


CITY           SKY/WX    TMP DP  RH WIND       PRES   REMARKS
WATERLOO       SUNNY     61  43  51 W10       29.99F
DUBUQUE        SUNNY     59  44  57 W16       29.99F
DECORAH        SUNNY     59  43  55 VRB6      29.96F
MASON CITY     SUNNY     60  45  57 W14       30.00F
CHARLES CITY   SUNNY     59  48  67 W9        30.00S
OELWEIN        SUNNY     57  45  62 W12       30.00S
$$

...ELSEWHERE IN IOWA...


CITY           SKY/WX    TMP DP  RH WIND       PRES   REMARKS
DES MOINES     MOSUNNY   61  44  53 W7        30.04F
IOWA CITY      SUNNY     61  45  55 W13       30.03S
FORT DODGE     SUNNY     59  45  58 W9        30.03S
MARSHALLTOWN   SUNNY     59  45  59 W10       30.01F
CEDAR RAPIDS     N/A    N/A N/A N/A W14       30.01S
$$

...NORTHERN ILLINOIS...


CITY           SKY/WX    TMP DP  RH WIND       PRES   REMARKS
CHICAGO-OHARE  MOSUNNY   59  39  47 W8        29.95F
CHICAGO-MIDWAY MOSUNNY   60  35  39 SW7       29.96F
MOLINE         SUNNY     60  44  55 W9G17     30.00F
ROCKFORD       MOSUNNY   61  44  53 NW13      29.98F
PEORIA         SUNNY     59  44  57 NW7       30.01F
$$

NOTE: "FAIR" INDICATES FEW OR NO CLOUDS BELOW 12,000 FEET WITH NO
SIGNIFICANT WEATHER AND/OR OBSTRUCTIONS TO VISIBILITY. WIND
SPEEDS ARE IN MILES-PER-HOUR.




USA.gov is the U.S. government's official web portal to all federal, state and local government web resources and services.